星链-36319(STARLINK-36319)

导读

STARLINK-36319(NORAD编号67970)是美国SpaceX公司星链(Starlink)低轨卫星互联网星座的一员。星链项目旨在通过部署近万颗低轨卫星,为全球提供高速低延迟互联网服务,尤其覆盖地面网络难以抵达的偏远区域。 该卫星运行于近地轨道,参与星座组网,为用户提供宽带接入服务,支持包括民用通信及部分特殊场景应用。截至2026年4月,SpaceX已累计发射超1.1万颗星链卫星,在轨活跃卫星突破万颗,STARLINK-36319是这一全球最大低轨卫星星座的组成单元,助力星链实现全球网络覆盖。

基本信息
目录编号:
67970
目录名称:
STARLINK-36319
国际标识:
2026-038K
轨道中心:
EARTH
卫星名称:
星链-36319
卫星全名:
星链-36319(STARLINK-36319)
卫星状态:
在轨 (已飞行108 天)
发射日期:
2026-02-25 UTC
国别 :
美国 (US)
星等 :
--
轨道信息
数据来源 国际轨道数据
星历时间: 2026-06-12T14:37:55+0800
21小时前
查看轨道信息
半长轴: 6843.665km
偏心率: 0.0001129
轨道倾角: 97.283°
近地点辐角 108.752°
升交点赤经 173.027°
平近点角 251.385°
近地点: 464.755km
远地点: 466.301km
周期: 93.906分钟
每日圈数: 15.334504
详细信息
固有亮度:
5
最大亮度:
2.5
卫星平台:
Starlink V1.0
覆盖范围:
全球
运营商:
太空探索技术公司
运营商所在国:
美国
制造商(研发单位):
太空探索技术公司
制造商所在国:
美国
使用方式:
暂无
卫星简介
Starlink 计划是 SpaceX 推出的全球卫星互联网项目,通过发射低轨道卫星,为全球尤其是偏远地区提供高速、低延迟的互联网服务。自 2019 年起,Starlink 已部署数千颗卫星,旨在缩小全球数字鸿沟,推动互联网普及。该项目还为军事、航空等行业提供通信支持,带来广泛经济效益。
2D轨道图
3D轨道图
轨道高度分析图
轨道倾角分析图
轨道综合分析图
查看轨道综合分析图